Voltar ao catálogo

INTELSAT 33E DEB

AtivoGEO
NORAD 62001·DEBRIS· XX

Lançado Aug 24, 2016 de Guiana Space Centre

Loading…

TLE

AtualizadoSource: Space-Track

Época: Sep 13, 2026, 02:54 UTC

1 62001U 16053T   26256.12091719  .00000143  00000-0  00000-0 0  9993
2 62001   1.6390  67.5069 0053330 358.3719   2.4739  1.00267624  6967

Acompanhe INTELSAT 33E DEB em tempo real com AllMySat

Download on the App Store